Stations météo

réclame
Mon MeteoGroup
Kaisersbach-Cronhütte, Allemagne (10747): Température de l'air & dewpoint: 14.09.2018 18:00:00 - 20.09.2018 18:00:00 (CEST)Kaisersbach-Cronhütte, Allemagne (10747): Température de l'air 5cm & Température de l'air -5cm: 14.09.2018 18:00:00 - 20.09.2018 18:00:00 (CEST)Kaisersbach-Cronhütte, Allemagne (10747): Température de l'air -20cm & Température de l'air -100cm: 14.09.2018 18:00:00 - 20.09.2018 18:00:00 (CEST)Kaisersbach-Cronhütte, Allemagne (10747): Vitesse du vent & gusts: 14.09.2018 18:00:00 - 20.09.2018 18:00:00 (CEST)Kaisersbach-Cronhütte, Allemagne (10747): Direction du vent: 14.09.2018 18:00:00 - 20.09.2018 18:00:00 (CEST)Kaisersbach-Cronhütte, Allemagne (10747): reduced air pressure: 14.09.2018 18:00:00 - 20.09.2018 18:00:00 (CEST)Kaisersbach-Cronhütte, Allemagne (10747): visibility: 14.09.2018 18:00:00 - 20.09.2018 18:00:00 (CEST)Kaisersbach-Cronhütte, Allemagne (10747): Ensoleillement: 14.09.2018 18:00:00 - 20.09.2018 18:00:00 (CEST)Kaisersbach-Cronhütte, Allemagne (10747): Quantités de précipitations: 14.09.2018 18:00:00 - 20.09.2018 18:00:00 (CEST)
Date & Time tt [°C] td [°C] tt 5cm [°C] tt -5cm [°C] tt -20cm [°C] tt -100cm [°C] ff [km/h] ff [knt] fx [km/h] fx [knt] dd ppp [hPa] vv [km] sd [min] rr [mm]
20.09.2018 18:00:00 27,1 11,6 27,9 27,9 23,5 18,5 7 4 17 9 SSW 1015,0 60 49 0,0
20.09.2018 17:00:00 27,1 11,2 30,0 29,1 23,0 18,5 12 6 23 12 W 1015,5 47 46 0,0
20.09.2018 16:00:00 27,3 11,9 30,5 29,8 22,4 18,5 10 6 24 13 WSW 1015,9 42 56 0,0
20.09.2018 15:00:00 27,2 11,9 32,7 29,8 21,6 18,5 10 5 22 12 WSW 1016,7 35 60 0,0
20.09.2018 14:00:00 26,2 12,5 30,4 28,9 20,8 18,5 11 6 20 11 WSW 1017,6 33 60 0,0
20.09.2018 13:00:00 25,7 12,8 30,2 27,5 20,0 18,5 10 5 19 10 SW 1018,2 39 60 0,0
20.09.2018 12:00:00 24,1 13,3 28,6 25,2 19,4 18,4 8 4 18 10 WSW 1019,1 30 60 0,0
20.09.2018 11:00:00 23,2 13,3 26,0 22,7 18,9 18,4 6 3 13 7 WSW 1019,4 40 60 0,0
20.09.2018 10:00:00 20,7 13,5 25,9 20,0 18,8 18,4 2 1 4 2 N 1020,0 28 60 0,0
20.09.2018 09:00:00 15,4 11,6 19,0 16,8 18,9 18,4 0 0 3 2 N 1021,0 20 60 0,0
20.09.2018 08:00:00 12,3 10,5 11,5 15,5 19,1 18,4 0 0 3 2 N 1021,3 18 17 0,0
20.09.2018 07:00:00 10,8 10,2 9,0 15,6 19,5 18,4 0 0 0 0 N 1021,5 8 0 0,0
20.09.2018 06:00:00 11,4 10,4 9,4 16,0 19,8 18,4 0 0 3 1 N 1021,3 16 0 0,0
20.09.2018 05:00:00 11,6 10,4 10,4 16,4 20,1 18,4 0 0 3 2 N 1021,4 18 0 0,0
20.09.2018 04:00:00 11,8 10,8 10,2 16,8 20,5 18,4 0 0 2 1 W 1021,2 18 0 0,0
20.09.2018 03:00:00 12,0 10,8 10,3 17,2 20,8 18,4 0 0 2 1 N 1021,4 21 0 0,0
20.09.2018 02:00:00 12,9 11,0 10,7 17,8 21,2 18,4 0 0 3 1 N 1021,4 26 0 0,0
20.09.2018 01:00:00 13,4 11,3 11,2 18,4 21,6 18,4 2 1 3 1 NW 1021,4 27 0 0,0
20.09.2018 00:00:00 14,4 11,2 11,6 19,1 22,0 18,4 0 0 3 2 N 1021,3 30 0 0,0
19.09.2018 23:00:00 15,0 11,5 12,4 19,9 22,4 18,4 0 0 3 2 N 1021,1 32 0 0,0
19.09.2018 22:00:00 16,2 11,6 13,4 20,8 22,8 18,4 0 0 4 2 N 1020,6 36 0 0,0
19.09.2018 21:00:00 17,4 11,6 14,5 22,0 23,2 18,4 3 1 5 3 W 1020,3 31 0 0,0
19.09.2018 20:00:00 19,8 11,5 15,7 23,7 23,5 18,4 2 1 4 2 NW 1019,5 32 0 0,0
19.09.2018 19:00:00 23,7 11,2 20,1 25,9 23,5 18,4 2 1 11 6 WNW 1018,4 67 45 0,0
19.09.2018 18:00:00 27,0 10,2 27,9 27,9 23,3 18,4 6 3 18 10 WSW 1017,6 56 56 0,0
19.09.2018 17:00:00 27,2 10,2 29,8 28,9 22,9 18,4 9 5 24 13 W 1017,8 53 60 0,0
19.09.2018 16:00:00 26,9 10,7 30,1 28,5 22,3 18,4 5 3 25 13 SSW 1018,1 55 34 0,0
19.09.2018 15:00:00 26,2 11,3 28,3 29,7 21,5 18,4 9 5 23 12 S 1018,6 54 57 0,0
19.09.2018 14:00:00 26,7 11,3 30,8 29,1 20,7 18,4 10 5 22 12 SW 1018,8 31 60 0,0
19.09.2018 13:00:00 25,5 11,1 29,4 27,8 19,9 18,4 9 5 19 11 S 1019,4 29 60 0,0
19.09.2018 12:00:00 24,5 9,6 27,9 25,7 19,2 18,4 6 4 16 8 S 1019,8 48 60 0,0
19.09.2018 11:00:00 22,6 10,4 26,4 22,8 18,8 18,4 5 3 8 4 SE 1020,3 47 60 0,0
19.09.2018 10:00:00 19,3 12,1 24,5 19,3 18,7 18,4 3 2 5 3 E 1020,7 41 54 0,0
19.09.2018 09:00:00 14,5 10,6 17,2 16,5 18,9 18,4 0 0 2 1 N 1021,2 32 46 0,0
19.09.2018 08:00:00 11,0 10,1 10,3 15,5 19,2 18,4 0 0 4 2 N 1021,4 17 0 0,0
19.09.2018 07:00:00 11,3 10,2 9,2 15,7 19,5 18,4 0 0 3 2 N 1021,0 25 0 0,0
19.09.2018 06:00:00 11,8 10,3 9,6 16,2 19,8 18,4 0 0 3 1 N 1020,6 30 0 0,0
19.09.2018 05:00:00 12,4 10,5 9,9 16,6 20,2 18,4 0 0 4 2 N 1020,2 33 0 0,0
19.09.2018 04:00:00 13,0 11,2 10,5 17,2 20,5 18,4 0 0 5 3 N 1019,8 34 0 0,0
19.09.2018 03:00:00 15,0 10,8 11,9 17,8 20,9 18,4 4 2 8 5 WSW 1019,4 55 0 0,0
19.09.2018 02:00:00 14,9 11,6 12,4 18,4 21,2 18,4 2 1 6 3 SSW 1019,4 43 0 0,0
19.09.2018 01:00:00 15,7 12,3 12,9 19,3 21,6 18,4 2 1 10 5 W 1018,9 37 0 0,0
19.09.2018 00:00:00 17,0 12,7 15,2 20,2 21,9 18,4 3 2 7 4 WSW 1018,4 36 0 0,0
18.09.2018 23:00:00 17,8 12,7 16,2 20,8 22,2 18,4 4 2 7 4 W 1018,3 41 0 0,0
18.09.2018 22:00:00 18,7 13,2 17,8 21,5 22,5 18,4 3 1 9 5 SSE 1017,8 46 0 0,0
18.09.2018 21:00:00 19,0 13,4 18,2 22,5 22,8 18,4 5 3 12 6 SSE 1017,2 51 0 0,0
18.09.2018 20:00:00 21,1 12,2 18,7 23,8 23,1 18,4 5 3 23 12 SSW 1016,0 45 0 0,0
18.09.2018 19:00:00 23,4 11,9 20,3 25,5 23,1 18,4 5 3 16 9 W 1014,9 53 0 0,0
18.09.2018 18:00:00 27,0 11,2 26,6 28,3 22,8 18,4 6 4 20 11 WSW 1014,0 52 54 0,0
18.09.2018 17:00:00 27,9 10,0 29,8 29,5 22,2 18,4 11 6 18 10 W 1013,9 40 55 0,0
18.09.2018 16:00:00 27,9 10,0 31,7 28,7 21,6 18,4 7 4 20 11 W 1014,2 36 57 0,0
18.09.2018 15:00:00 27,7 8,8 30,7 29,3 20,7 18,4 11 6 20 11 SSW 1014,8 34 60 0,0
18.09.2018 14:00:00 26,8 8,4 29,7 28,6 19,8 18,4 13 7 27 15 SSW 1015,3 46 58 0,0
18.09.2018 13:00:00 25,6 11,4 31,8 27,5 18,8 18,4 9 5 21 11 W 1015,8 25 60 0,0
18.09.2018 12:00:00 24,9 11,0 29,8 25,2 18,1 18,4 9 5 18 10 W 1016,2 42 60 0,0
18.09.2018 11:00:00 23,7 11,4 26,7 22,2 17,5 18,4 11 6 16 9 WSW 1016,4 36 60 0,0
18.09.2018 10:00:00 19,4 11,8 25,1 18,5 17,3 18,4 3 1 4 2 ESE 1017,1 41 60 0,0
18.09.2018 09:00:00 13,5 7,9 17,6 15,1 17,4 18,4 0 0 3 1 N 1018,3 31 60 0,0
18.09.2018 08:00:00 9,8 6,6 8,9 13,3 17,7 18,4 0 0 2 1 N 1018,9 27 22 0,0
18.09.2018 07:00:00 7,9 6,7 5,9 13,4 18,1 18,4 0 0 2 1 N 1019,0 29 0 0,0
18.09.2018 06:00:00 8,2 6,3 6,1 13,8 18,4 18,4 0 0 2 1 N 1018,9 34 0 0,0
18.09.2018 05:00:00 8,5 5,9 6,9 14,3 18,7 18,4 0 0 2 1 N 1019,0 39 0 0,0
18.09.2018 04:00:00 8,7 5,8 7,2 14,7 19,1 18,4 0 0 2 1 N 1019,1 39 0 0,0
18.09.2018 03:00:00 9,1 5,6 7,4 15,1 19,5 18,4 0 0 3 1 N 1019,0 41 0 0,0
18.09.2018 02:00:00 9,3 5,7 7,5 15,6 19,9 18,4 0 0 2 1 N 1019,2 40 0 0,0
18.09.2018 01:00:00 9,8 5,6 7,4 16,1 20,4 18,4 0 0 3 2 N 1019,2 41 0 0,0
18.09.2018 00:00:00 10,5 6,0 7,9 16,8 20,9 18,4 2 1 3 2 NW 1019,4 45 0 0,0
17.09.2018 23:00:00 11,3 5,8 8,3 17,7 21,4 18,4 0 0 3 2 N 1019,4 47 0 0,0
17.09.2018 22:00:00 12,6 6,5 9,1 18,8 21,9 18,4 2 1 4 2 NW 1019,3 49 0 0,0
17.09.2018 21:00:00 14,3 6,2 10,2 20,2 22,4 18,4 0 0 3 2 N 1019,1 60 0 0,0
17.09.2018 20:00:00 16,7 5,8 11,9 22,2 22,7 18,4 3 1 4 2 NW 1018,3 60 11 0,0
17.09.2018 19:00:00 21,1 5,7 18,2 24,9 22,8 18,4 3 2 7 4 W 1017,6 70 60 0,0
17.09.2018 18:00:00 24,9 4,1 26,6 27,3 22,5 18,4 4 2 12 7 SE 1017,0 70 60 0,0
17.09.2018 17:00:00 25,0 4,0 27,9 28,3 22,0 18,4 6 4 16 9 WSW 1017,4 60 60 0,0
17.09.2018 16:00:00 25,1 6,1 28,7 28,5 21,3 18,4 8 4 16 9 WSW 1017,7 42 60 0,0
17.09.2018 15:00:00 24,9 6,2 28,7 29,0 20,5 18,4 8 4 19 10 SW 1018,3 53 60 0,0
17.09.2018 14:00:00 24,4 6,7 28,4 28,3 19,5 18,4 9 5 20 11 SSW 1019,1 30 60 0,0
17.09.2018 13:00:00 22,9 8,4 26,9 27,0 18,6 18,4 10 6 16 9 SW 1019,7 24 60 0,0
17.09.2018 12:00:00 22,7 10,9 28,1 24,9 17,9 18,4 5 3 14 8 SSE 1020,0 29 60 0,0
17.09.2018 11:00:00 20,3 11,9 25,2 21,8 17,3 18,4 8 4 13 7 W 1021,0 25 60 0,0
17.09.2018 10:00:00 18,3 12,2 23,7 18,2 17,1 18,4 3 2 7 4 W 1021,3 30 60 0,0
17.09.2018 09:00:00 13,5 9,6 16,0 14,8 17,2 18,4 0 0 0 0 N 1022,3 14 60 0,0
17.09.2018 08:00:00 9,1 7,6 8,9 13,0 17,5 18,4 0 0 0 0 N 1023,1 9 23 0,0
17.09.2018 07:00:00 8,0 7,6 5,9 13,1 17,9 18,4 0 0 0 0 N 1023,1 4,6 0 0,0
17.09.2018 06:00:00 8,5 8,1 6,6 13,5 18,2 18,4 0 0 0 0 N 1022,8 4,3 0 0,0
17.09.2018 05:00:00 8,8 8,5 6,5 13,9 18,6 18,4 0 0 0 0 N 1022,5 4,0 0 0,0
17.09.2018 04:00:00 9,1 8,5 6,7 14,4 19,0 18,4 0 0 0 0 N 1022,4 12 0 0,0
17.09.2018 03:00:00 9,5 8,7 7,3 15,0 19,4 18,4 0 0 0 0 N 1022,3 11 0 0,0
17.09.2018 02:00:00 10,1 9,2 7,5 15,7 19,8 18,4 0 0 0 0 N 1022,4 13 0 0,0
17.09.2018 01:00:00 11,0 9,1 8,6 16,4 20,3 18,4 0 0 3 1 N 1022,3 24 0 0,0
17.09.2018 00:00:00 11,4 9,0 9,3 17,2 20,7 18,4 0 0 3 2 N 1022,2 27 0 0,0
16.09.2018 23:00:00 12,4 9,1 9,8 18,1 21,1 18,4 0 0 3 2 N 1022,1 31 0 0,0
16.09.2018 22:00:00 13,6 9,3 11,0 19,1 21,6 18,4 2 1 3 2 NNW 1021,7 37 0 0,0
16.09.2018 21:00:00 15,0 9,4 12,5 20,4 22,0 18,4 0 0 3 2 N 1021,3 43 0 0,0
16.09.2018 20:00:00 17,2 9,6 13,7 22,2 22,2 18,4 0 0 3 2 N 1020,5 51 1 0,0
16.09.2018 19:00:00 20,7 9,5 19,5 24,6 22,2 18,4 0 0 6 4 N 1019,5 69 38 0,0
16.09.2018 18:00:00 22,4 9,5 24,9 26,5 21,9 18,5 4 2 10 5 E 1019,0 70 60 0,0
16.09.2018 17:00:00 23,9 5,8 26,4 27,6 21,4 18,5 6 3 13 7 SW 1019,1 62 60 0,0
16.09.2018 16:00:00 23,7 5,0 27,3 27,9 20,7 18,5 5 3 16 9 S 1019,6 53 60 0,0
16.09.2018 15:00:00 22,6 6,0 26,1 28,0 19,8 18,5 9 5 22 12 SSE 1020,3 53 60 0,0
16.09.2018 14:00:00 23,0 7,5 27,1 27,5 18,9 18,5 7 4 21 11 SSE 1020,9 37 60 0,0
16.09.2018 13:00:00 21,3 7,5 25,9 26,1 18,0 18,5 10 5 23 12 ESE 1021,4 37 60 0,0
16.09.2018 12:00:00 20,2 8,1 25,1 23,8 17,2 18,5 7 4 20 11 ESE 1022,4 39 60 0,0
16.09.2018 11:00:00 18,5 7,1 21,8 20,6 16,7 18,5 10 5 16 9 ESE 1023,0 24 60 0,0
16.09.2018 10:00:00 16,4 6,4 19,7 17,1 16,5 18,5 6 4 10 5 E 1023,5 46 60 0,0
16.09.2018 09:00:00 12,5 7,5 14,7 13,7 16,7 18,5 2 1 7 4 SE 1024,2 49 60 0,0
16.09.2018 08:00:00 8,0 5,4 6,5 11,7 17,0 18,5 2 1 4 2 NW 1025,4 32 23 0,0
16.09.2018 07:00:00 6,6 5,3 4,3 11,8 17,3 18,5 3 1 5 3 NNW 1025,8 36 0 0,0
16.09.2018 06:00:00 7,5 5,8 4,9 12,3 17,7 18,5 3 2 5 3 NW 1025,4 39 0 0,0
16.09.2018 05:00:00 7,9 6,1 5,4 12,8 18,1 18,5 3 2 4 2 WNW 1025,7 36 0 0,0
16.09.2018 04:00:00 7,9 6,4 5,9 13,2 18,5 18,5 3 2 4 2 WNW 1026,2 39 0 0,0
16.09.2018 03:00:00 7,7 5,9 5,7 13,6 18,9 18,5 3 1 4 2 WNW 1026,7 37 0 0,0
16.09.2018 02:00:00 7,5 6,0 5,7 14,2 19,4 18,5 3 1 5 3 NW 1027,2 35 0 0,0
16.09.2018 01:00:00 7,7 6,1 6,1 14,7 19,9 18,5 3 1 3 2 WNW 1027,4 32 0 0,0
16.09.2018 00:00:00 7,8 5,9 6,0 15,4 20,4 18,5 0 0 3 2 N 1027,2 28 0 0,0
15.09.2018 23:00:00 9,2 6,3 6,5 16,4 21,0 18,5 0 0 4 2 N 1026,9 39 0 0,0
15.09.2018 22:00:00 10,4 6,5 7,6 17,5 21,5 18,5 2 1 4 2 NNW 1026,5 49 0 0,0
15.09.2018 21:00:00 11,7 6,6 8,6 19,0 22,0 18,5 3 1 4 2 NNW 1026,1 55 0 0,0
15.09.2018 20:00:00 14,1 7,0 10,7 21,1 22,4 18,5 4 2 10 6 NNW 1025,0 55 13 0,0
15.09.2018 19:00:00 17,7 5,9 17,3 23,7 22,5 18,5 7 4 14 8 NNW 1023,8 60 60 0,0
15.09.2018 18:00:00 18,7 5,4 22,4 25,9 22,3 18,5 8 5 17 9 WNW 1023,2 54 60 0,0
15.09.2018 17:00:00 19,3 5,5 23,8 27,0 21,8 18,5 7 4 29 16 NW 1023,1 39 60 0,0
15.09.2018 16:00:00 19,2 6,2 23,1 27,2 21,2 18,5 11 6 28 15 SW 1023,2 34 59 0,0
15.09.2018 15:00:00 18,6 5,6 24,0 27,5 20,4 18,5 14 7 27 15 W 1023,8 32 60 0,0
15.09.2018 14:00:00 18,8 6,0 23,3 27,6 19,5 18,5 11 6 26 14 WSW 1023,8 32 59 0,0
15.09.2018 13:00:00 17,8 6,9 26,0 25,2 18,9 18,5 10 5 22 12 NNW 1023,9 34 44 0,0
15.09.2018 12:00:00 17,4 7,1 21,8 21,9 18,4 18,5 7 4 13 7 WSW 1024,1 37 29 0,0
15.09.2018 11:00:00 16,5 6,7 21,0 21,5 18,1 18,5 9 5 18 10 WNW 1024,2 23 59 0,0
15.09.2018 10:00:00 15,8 7,8 19,7 18,4 18,0 18,5 5 3 10 5 N 1024,1 28 60 0,0
15.09.2018 09:00:00 14,6 10,5 15,8 15,9 18,1 18,5 2 1 7 4 ESE 1023,6 17 19 0,0
15.09.2018 08:00:00 13,1 11,3 12,5 15,4 18,3 18,5 5 3 10 6 WNW 1023,5 14 0 0,0
15.09.2018 07:00:00 13,1 11,8 12,7 15,4 18,5 18,5 6 3 17 9 W 1022,8 11 0 0,0
15.09.2018 06:00:00 13,3 12,2 11,8 15,9 18,7 18,5 6 3 10 6 W 1022,2 10 0 0,0
15.09.2018 05:00:00 14,3 12,7 13,4 16,5 18,9 18,5 8 4 14 8 W 1021,6 11 0 0,0
15.09.2018 04:00:00 14,5 13,2 14,0 16,6 19,1 18,5 7 4 11 6 W 1021,4 6 0 0,0
15.09.2018 03:00:00 13,3 12,6 12,7 16,6 19,4 18,5 1 1 4 2 S 1021,4 9 0 0,1
15.09.2018 02:00:00 13,7 12,9 13,5 17,1 19,6 18,5 0 0 3 2 N 1021,3 12 0 0,0
15.09.2018 01:00:00 13,7 13,0 13,3 17,3 19,9 18,5 2 1 4 2 NNW 1021,2 11 0 0,0
15.09.2018 00:00:00 13,9 13,0 12,7 17,5 20,2 18,5 0 0 3 1 N 1020,7 12 0 0,0
14.09.2018 23:00:00 14,8 13,4 13,8 18,3 20,4 18,5 2 1 4 2 SE 1020,7 14 0 0,0
14.09.2018 22:00:00 15,6 13,6 14,6 19,0 20,7 18,5 0 0 4 2 N 1020,4 20 0 0,0
14.09.2018 21:00:00 16,0 13,6 15,8 19,6 21,0 18,5 4 2 6 3 WNW 1020,2 24 0 0,0
14.09.2018 20:00:00 17,1 13,7 16,3 20,4 21,2 18,5 4 2 8 4 NNW 1019,3 22 0 0,0
14.09.2018 19:00:00 18,2 14,0 18,4 21,9 21,2 18,5 4 2 12 7 NNW 1018,8 21 3 0,0
14.09.2018 18:00:00 18,5 13,6 19,6 23,5 21,1 18,5 9 5 14 7 NE 1018,8 17 14 0,0

tt = Température de l'air
td = dewpoint
tt 5cm = Température de l'air 5cm
tt -5cm = Température de l'air -5cm
tt -20cm = Température de l'air -20cm
tt -100cm = Température de l'air -100cm
ff = Vitesse du vent
fx = gusts
dd = Direction du vent
ppp = reduced air pressure
vv = visibility
sd = Ensoleillement
rr = Quantités de précipitations

stations d'obs. à proximité